GW4294 Weather Reports


time (UTC)temp
C
wind
direction
speed
KPH
gust
KPH
rain 1hr
cm
rain 24hr
cm
rain mn
cm
humidity
%
barometer
mb
20260503224600 9 136 0.0 3.2 0.00 0.13 0.13 86 1005.4
20260503223054 9 110 0.0 1.6 0.00 0.13 0.13 86 1005.6
20260503221601 9 143 0.0 3.2 0.03 0.13 0.13 86 1005.8
20260503220052 8 0 0.0 8.0 0.03 0.13 0.13 85 1006.3
20260503214551 8 0 0.0 3.2 0.03 0.10 0.10 85 1006.4
20260503213103 8 0 0.0 4.8 0.03 0.10 0.10 85 1006.2
20260503211556 8 133 1.6 6.4 0.00 0.08 0.08 85 1006.1
20260503210059 8 210 1.6 8.0 0.00 0.08 0.08 84 1006.1
20260503204619 9 176 1.6 17.7 0.00 0.08 0.08 81 1006.2
20260503203100 8 200 1.6 9.7 0.00 0.08 0.08 83 1006.1
20260503201552 8 198 1.6 11.3 0.00 0.08 0.08 85 1006.2
20260503200054 8 209 3.2 9.7 0.03 0.08 0.08 86 1006.6
20260503194555 8 154 1.6 12.9 0.08 0.08 0.08 86 1006.9
20260503193059 7 214 1.6 4.8 0.08 0.08 0.08 87 1007.1
20260503191610 7 218 0.0 8.0 0.05 0.05 0.05 86 1007.3
20260503190051 8 277 4.8 19.3 0.03 0.03 0.03 83 1007.9
20260503184553 10 209 6.4 20.9 0.00 0.00 0.00 71 1008.0
20260503183058 12 253 9.7 22.5 0.00 0.00 0.00 55 1007.5
20260503181554 13 245 6.4 24.1 0.00 0.00 0.00 50 1007.3
20260503174556 13 291 3.2 12.9 0.00 0.00 0.00 47 1007.6
20260503173051 13 275 4.8 14.5 0.00 0.00 0.00 47 1007.6
20260503171553 12 272 4.8 19.3 0.00 0.00 0.00 45 1008.0
20260503170105 12 247 4.8 14.5 0.00 0.00 0.00 47 1007.9
20260503160106 12 197 3.2 12.9 0.00 0.00 0.00 44 1008.3
20260503100104 -2 0 0.0 0.0 0.00 0.00 0.00 86 1011.0
20260503081553 -1 0 0.0 1.6 0.00 0.00 0.00 83 1011.4
20260503071603 -1 0 0.0 0.0 0.00 0.00 0.00 82 1011.3
20260503054606 -2 0 0.0 0.0 0.00 0.00 0.00 85 1012.1
20260503053058 -2 0 0.0 0.0 0.00 0.00 0.00 84 1012.4
20260503051555 -2 0 0.0 0.0 0.00 0.00 0.00 84 1012.6
20260503050051 -2 0 0.0 0.0 0.00 0.00 0.00 82 1012.7
20260503044554 -1 0 0.0 0.0 0.00 0.00 0.00 81 1013.0
20260503043058 -1 0 0.0 0.0 0.00 0.00 0.00 81 1013.0
20260503041552 -1 0 0.0 0.0 0.00 0.00 0.00 82 1013.2
20260503040057 -1 0 0.0 0.0 0.00 0.00 0.00 82 1013.1
20260503034552 -1 0 0.0 0.0 0.00 0.00 0.00 82 1013.2
20260503033058 -1 0 0.0 0.0 0.00 0.00 0.00 81 1013.3
20260503031553 -1 0 0.0 0.0 0.00 0.00 0.00 79 1013.4
20260503030052 -1 0 0.0 0.0 0.00 0.00 0.00 78 1013.4
20260503024555 0 0 0.0 0.0 0.00 0.00 0.00 75 1013.7
20260503023059 0 0 0.0 0.0 0.00 0.00 0.00 75 1013.7
20260503021553 0 0 0.0 0.0 0.00 0.00 0.00 68 1013.8
20260503020053 0 0 0.0 0.0 0.00 0.00 0.00 68 1013.7
20260503014602 1 0 0.0 0.0 0.00 0.00 0.00 60 1013.7
20260503013053 1 0 0.0 0.0 0.00 0.00 0.00 57 1013.7
20260503011553 2 0 0.0 0.0 0.00 0.00 0.00 54 1013.6
20260503010054 2 0 0.0 0.0 0.00 0.00 0.00 52 1013.7
20260503004553 3 0 0.0 0.0 0.00 0.00 0.00 50 1013.5
20260503003055 4 0 0.0 1.6 0.00 0.00 0.00 45 1013.5
20260503001608 5 231 0.0 3.2 0.00 0.00 0.00 42 1013.5
20260503000109 5 0 0.0 6.4 0.00 0.00 0.00 42 1013.6
20260502234606 5 304 1.6 8.0 0.00 0.00 0.00 39 1013.6
20260502233056 6 254 3.2 12.9 0.00 0.00 0.00 38 1013.6
20260502231559 6 264 3.2 12.9 0.00 0.00 0.00 37 1013.6
20260502230052 6 227 4.8 14.5 0.00 0.00 0.00 37 1013.5